Location: McFarlands Corners
(41.4117°N, 81.3382°W)
Time: 13:49:28
(UTC+00:00)

Courier 1B Rocket - Pass Details

Date: 16 February 2026
Orbit: 920 x 1201 km, 28.2° (Epoch: 10 March)

Event Time Altitude Azimuth Distance (km) Brightness Sun altitude
Rises 05:54:54 0° 255° (WSW) 3,746 - -60.7°
Reaches altitude 10° 05:58:33 10° 236° (WSW) 2,849 - -60.6°
Maximum altitude 06:02:48 17° 199° (SSW) 2,427 - -60.5°
Drops below altitude 10° 06:07:12 10° 161° (SSE) 2,974 - -60.3°
Sets 06:11:10 0° 143° (SE) 3,984 - -60.1°
